Weather History for PABT - January, 2013

Change the Weather History Date:

Friday, January 18, 2013

  Actual Average Record
Temperature  
Mean Temperature -23 °F -  
Max Temperature -11 °F - - ()
Min Temperature -35 °F - - ()
Degree Days  
Heating Degree Days 88    
Moisture  
Dew Point -26 °F    
Average Humidity 71    
Maximum Humidity 78    
Minimum Humidity 55    
Precipitation  
Precipitation 0.00 in - - ()
Snow  
Snow 0.00 in - - ()
Snow Depth 18.00 in    
Sea Level Pressure  
Sea Level Pressure 30.58 in    
Wind  
Wind Speed 5 mph (North)    
Max Wind Speed 9 mph    
Max Gust Speed -    
Visibility 10 miles    
Events Snow    
T = Trace of Precipitation, MM = Missing Value Source: NWS Daily Summary

Daily Weather History Graph

Daily Weather History Graph

Search for Another Location

Airport or City:

Trip Planner

Search our weather history database for the weather conditions in past years. The results will help you decide how hot, cold, wet, or windy it might be!

Date:

Astronomy

Jan. 18, 2013 Rise Set
Actual Time 11:01 AM AKST 3:32 PM AKST
Civil Twilight 9:40 AM AKST 4:53 PM AKST
Nautical Twilight 8:28 AM AKST 6:06 PM AKST
Astronomical Twilight 7:23 AM AKST 7:10 PM AKST
Moon 10:44 AM AKST (1/18) 2:25 AM AKST (1/18)
Length of Visible Light 7h 13m
Length of Day
4h 30m
Waxing Crescent, 49% of the Moon is Illuminated
Jan 18
Waxing Crescent
Jan 18
First Quarter
Jan 26
Full
Feb 3
Last Quarter
Feb 9
New

Hourly Weather History & Observations

Time (AKST) Temp. Windchill Dew Point Humidity Pressure Visibility Wind Dir Wind Speed Gust Speed Precip Events Conditions
12:53 AM -13.0 °F -27.0 °F -18.0 °F 78% 30.45 in 10.0 mi North 5.8 mph - N/A   Clear
1:53 AM -18.9 °F -34.0 °F -25.1 °F 74% 30.47 in 10.0 mi NNE 5.8 mph - N/A   Clear
3:53 AM -20.0 °F -39.9 °F -27.0 °F 70% 30.49 in 10.0 mi NNE 9.2 mph - N/A   Clear
4:53 AM -23.1 °F -36.8 °F -29.0 °F 74% 30.50 in 10.0 mi NNE 4.6 mph - N/A   Clear
5:53 AM -22.0 °F - -27.9 °F 74% 30.51 in 10.0 mi Calm Calm - N/A   Clear
6:53 AM -22.0 °F -37.7 °F -27.9 °F 74% 30.52 in 10.0 mi NNE 5.8 mph - N/A   Clear
7:53 AM -27.9 °F - -33.0 °F 77% 30.54 in 10.0 mi Calm Calm - N/A   Clear
8:53 AM -34.1 °F - - N/A% 30.56 in 10.0 mi Calm Calm - N/A   Clear
9:53 AM -35.0 °F - - N/A% 30.56 in 10.0 mi Calm Calm - N/A   Clear
10:53 AM -22.0 °F -37.7 °F -27.9 °F 74% 30.57 in 10.0 mi North 5.8 mph - N/A   Clear
11:53 AM -22.0 °F -37.7 °F -27.9 °F 74% 30.59 in 10.0 mi North 5.8 mph - N/A   Clear
12:53 PM -20.0 °F -33.3 °F -27.9 °F 67% 30.60 in 10.0 mi North 4.6 mph - N/A   Clear
1:53 PM -24.0 °F -35.2 °F -29.9 °F 74% 30.62 in 10.0 mi North 3.5 mph - N/A   Clear
2:06 PM -22.0 °F -35.6 °F -27.4 °F 76% 30.52 in 0.8 mi North 4.6 mph - N/A Snow Light Snow
2:09 PM -20.2 °F -33.5 °F -25.6 °F 76% 30.52 in 10.0 mi NNW 4.6 mph - N/A   Clear
2:53 PM -27.9 °F - -33.0 °F 77% 30.63 in 10.0 mi Calm Calm - N/A   Clear
3:53 PM -24.0 °F -41.8 °F -31.0 °F 70% 30.62 in 10.0 mi NE 6.9 mph - N/A   Clear
4:53 PM -24.0 °F - -29.0 °F 77% 30.63 in 10.0 mi Calm Calm - N/A   Clear
5:53 PM -31.0 °F -43.3 °F - N/A% 30.64 in 10.0 mi NNE 3.5 mph - N/A   Clear
6:53 PM -15.0 °F -31.0 °F -22.0 °F 71% 30.63 in 10.0 mi North 6.9 mph - N/A   Clear
7:53 PM -11.9 °F -28.7 °F -20.0 °F 67% 30.65 in 10.0 mi North 8.1 mph - N/A   Clear
8:53 PM -15.0 °F -33.7 °F -22.0 °F 71% 30.65 in 10.0 mi North 9.2 mph - N/A   Clear
9:53 PM -13.0 °F -22.7 °F -20.9 °F 68% 30.67 in 10.0 mi North 3.5 mph - N/A   Clear
10:53 PM -11.9 °F -25.7 °F -20.0 °F 67% 30.67 in 10.0 mi North 5.8 mph - N/A   Clear
11:53 PM -11.0 °F -27.6 °F -18.9 °F 68% 30.67 in 10.0 mi North 8.1 mph - N/A   Clear